Regional Weather Roundup
Issued by NWS Midland/Odessa, TX

Skip options and go directly to product.
Home | Oldest Version | Previous Version | Current Version | All | Text Only | Save Text | Print | Product List | Glossary Off

Skip product version selection by date and time.   

057
ASUS44 KMAF 292310
RWRMAF
MIDLAND AREA WEATHER ROUNDUP
NATIONAL WEATHER SERVICE MIDLAND TX
600 PM CDT TUE JUL 29 2014

...IN SOUTHWEST TEXAS AND SOUTHEAST NEW MEXICO...

CITY           SKY/WX    TMP DP  RH WIND       PRES   REMARKS
ALPINE         MOSUNNY   92  46  20 SE7       30.19F
ANDREWS        PTSUNNY   92  54  27 SE9       30.07F
ARTESIA        SUNNY     90  57  33 S3        30.09F
BIG SPRING     PTSUNNY   92  62  37 NE20G25   30.07F
CARLSBAD       PTSUNNY   94  52  24 MISG      30.05F
DRYDEN           N/A    102  54  20 SE15G23   30.00F HX 100
FORT STOCKTON  SUNNY     96  50  20 SE14G22   30.04F
GUAD PASS      MOSUNNY   83  57  41 E9G22     30.24F
HOBBS          SUNNY     86  59  39 E12G18    30.12F
MARFA          MOSUNNY   90  46  22 E9        30.20F
MIDLAND AIRPK  MOSUNNY   96  50  20 S9        30.04F
MIDLAND INTL   MOSUNNY   95  52  23 S8        30.03F
ODESSA         MOSUNNY   95  49  20 S14       30.05F
PECOS          SUNNY     97  47  17 SE6       29.99F
PRESIDIO       FAIR      98  50  19 N3        29.99F
SEMINOLE       PTSUNNY   88  59  37 NE8       30.10F
SNYDER         CLOUDY    73  66  80 E9        30.10F
WINK           PTSUNNY   97  48  18 E7        30.00F
$$
...OTHER STATIONS IN TEXAS...

CITY           SKY/WX    TMP DP  RH WIND       PRES   REMARKS
ABILENE        CLOUDY    86  66  51 E10       30.07S
AMARILLO       CLOUDY    76  61  59 S12       30.15F
AUSTIN         PTSUNNY   93  71  48 NE15      30.00F HX 100
BROWNSVILLE    SUNNY     92  72  51 SE15G21   29.99S
CORPUS CHRISTI PTSUNNY   94  66  39 E16       29.99F
DALLAS FTW     CLOUDY    83  56  39 CALM      30.08S
DEL RIO        SUNNY    100  53  20 SE15G21   29.95F
EL PASO        PTSUNNY   87  59  38 CALM      30.09F
HOUSTON INT    CLOUDY    83  75  77 CALM      30.03F
LUBBOCK        CLOUDY    79  65  62 E9        30.13F
SAN ANGELO     MOSUNNY   99  56  23 E8G17     30.01F
SAN ANTONIO    PTSUNNY   97  61  30 SE7       30.00F
WACO           MOSUNNY   89  58  34 E9        30.07F
WICHITA FALLS  NOT AVBL
$$
...OTHER LOCATIONS IN NEW MEXICO...

CITY           SKY/WX    TMP DP  RH WIND       PRES   REMARKS
ALAMAGORDO     MOSUNNY   86  57  37 S5        30.13F
ALBUQUERQUE    TSTM      65  62  90 VRB3      30.22R FOG
CANNON AFB     SUNNY     80  66  63 SW13      30.17F
CLOVIS         NOT AVBL
HOLLOMAN AFB   MOSUNNY   86  59  39 NW1       30.11F
ROSWELL        MOSUNNY   80  66  62 NE3       30.12F
RUIDOSO        PTSUNNY   68  57  68 NE6       30.34S
SANTA FE       CLOUDY    70  60  70 N8        30.25F
TRUTH OR CONSE CLOUDY    73  63  70 SE5       30.18F
TUCUMCARI      PTSUNNY   81  63  54 SW14      30.11F
$$

USA.gov is the U.S. government's official web portal to all federal, state and local government web resources and services.